This is the latest recevied weather packets stored in our database for station/object KM4KMS. If no packets are shown the sender has not sent any weather packets the latest 1 day(s).
| Time | Temp. | Humidity | Pressure | Rain* | Wind** | Luminosity | Snow |
|---|---|---|---|---|---|---|---|
| 1778060089 | 8.33° C | 99% | 1007.7 hPa | 0 mm | - | 0 W/m² | - |
| 1778058879 | 8.89° C | 99% | 1007.7 hPa | 0 mm | - | 0 W/m² | - |
| 1778058576 | 8.89° C | 99% | 1007.8 hPa | 1.27 mm | - | 0 W/m² | - |
| 1778057970 | 8.89° C | 99% | 1008.1 hPa | 0 mm | - | 0 W/m² | - |
| 1778057667 | 9.44° C | 99% | 1008.2 hPa | 0 mm | - | 0 W/m² | - |
| 1778057363 | 9.44° C | 99% | 1007.9 hPa | 0 mm | - | 0 W/m² | - |
| 1778056756 | 9.44° C | 99% | 1007.6 hPa | 0 mm | - | 0 W/m² | - |
| 1778056454 | 9.44° C | 99% | 1006.9 hPa | 0 mm | - | 0 W/m² | - |
| 1778056151 | 9.44° C | 99% | 1006.9 hPa | 0 mm | - | 0 W/m² | - |
| 1778055848 | 10° C | 99% | 1006.9 hPa | 0 mm | - | 0 W/m² | - |
| 1778054939 | 10° C | 99% | 1006.4 hPa | 0 mm | - | 0 W/m² | - |
| 1778053122 | 10.56° C | 99% | 1006.1 hPa | 0 mm | - | 0 W/m² | - |
| 1778052214 | 10.56° C | 99% | 1005.5 hPa | 4.83 mm | - | 0 W/m² | - |
| 1778051610 | 10.56° C | 99% | 1005.8 hPa | 4.32 mm | - | 0 W/m² | - |
| 1778051306 | 10.56° C | 99% | 1006 hPa | 4.32 mm | - | 0 W/m² | - |
| 1778051003 | 11.11° C | 99% | 1005.7 hPa | 6.1 mm | - | 0 W/m² | - |
| 1778050398 | 11.11° C | 99% | 1005.6 hPa | 6.1 mm | - | 0 W/m² | - |
| 1778049790 | 11.67° C | 99% | 1005.7 hPa | 0 mm | - | 0 W/m² | - |
| 1778049185 | 11.67° C | 99% | 1005.2 hPa | 1.78 mm | - | 0 W/m² | - |
| 1778048276 | 14.44° C | 99% | 1004.9 hPa | 3.05 mm | - | 0 W/m² | - |
| 1778047973 | 14.44° C | 99% | 1005.1 hPa | 3.05 mm | - | 0 W/m² | - |
| 1778047369 | 14.44° C | 99% | 1005.3 hPa | 1.78 mm | - | 0 W/m² | - |
| 1778046762 | 14.44° C | 99% | 1005.3 hPa | 7.87 mm | - | 0 W/m² | - |
| 1778046156 | 14.44° C | 99% | 1005.3 hPa | 7.87 mm | - | 0 W/m² | - |
| 1778045853 | 14.44° C | 99% | 1005.5 hPa | 12.7 mm | - | 0 W/m² | - |
* Rain latest hour (hover to see other rain measurements)
** Current wind speed in m/s (hover to see current wind gust speed)